Time,TemperatureF,DewpointF,PressureIn,WindDirection,WindDirectionDegrees,WindSpeedMPH,WindSpeedGustMPH,Humidity,HourlyPrecipIn,Conditions,Clouds,dailyrainin,SolarRadiationWatts/m^2,SoftwareType,DateUTC
2013-04-19 00:01:00,26.0,-6.0,-100.00,NNW,328,10.0,18.0,24,0.00,,,0.00,0.000000,,2013-04-19 06:01:00,
2013-04-19 00:32:00,26.0,-9.0,-100.00,North,352,11.0,16.0,21,0.00,,,0.00,0.000000,,2013-04-19 06:32:00,
2013-04-19 00:42:00,26.0,-9.0,-100.00,North,352,11.0,16.0,21,0.00,,,0.00,0.000000,,2013-04-19 06:42:00,
2013-04-19 00:53:00,26.0,-9.0,-100.00,North,352,11.0,16.0,21,0.00,,,0.00,0.000000,,2013-04-19 06:53:00,
2013-04-19 01:01:00,26.0,-9.0,-100.00,North,352,11.0,16.0,21,0.00,,,0.00,0.000000,,2013-04-19 07:01:00,
2013-04-19 02:42:00,24.0,-5.0,-100.00,NNE,26,5.0,11.0,27,-99.99,,,0.00,0.000000,,2013-04-19 08:42:00,
2013-04-19 02:52:00,24.0,-5.0,-100.00,NNE,26,5.0,11.0,27,-99.99,,,0.00,0.000000,,2013-04-19 08:52:00,
2013-04-19 03:01:00,24.0,-5.0,-100.00,NNE,26,5.0,11.0,27,-99.99,,,0.00,0.000000,,2013-04-19 09:01:00,
2013-04-19 03:33:00,25.0,-4.0,-100.00,East,87,5.0,6.0,27,-99.99,,,0.00,0.000000,,2013-04-19 09:33:00,
2013-04-19 04:33:00,24.0,-7.0,-100.00,SE,135,5.0,7.0,25,-99.99,,,-99.99,0.000000,,2013-04-19 10:33:00,
2013-04-19 05:32:00,23.0,-5.0,-100.00,ESE,120,3.0,5.0,28,-99.99,,,0.00,0.000000,,2013-04-19 11:32:00,
2013-04-19 06:02:00,23.0,-5.0,-100.00,ESE,120,3.0,5.0,28,-99.99,,,0.00,0.000000,,2013-04-19 12:02:00,
2013-04-19 06:42:00,21.0,-6.0,-100.00,NE,44,5.0,6.0,29,-99.99,,,0.00,0.000000,,2013-04-19 12:42:00,
2013-04-19 06:52:00,21.0,-6.0,-100.00,NE,44,5.0,6.0,29,-99.99,,,0.00,0.000000,,2013-04-19 12:52:00,
2013-04-19 07:01:00,21.0,-6.0,-100.00,NE,44,5.0,6.0,29,-99.99,,,0.00,0.000000,,2013-04-19 13:01:00,
2013-04-19 07:32:00,23.0,-3.0,-100.00,NE,37,5.0,7.0,31,-99.99,,,0.00,18.000000,,2013-04-19 13:32:00,
2013-04-19 08:32:00,28.0,-2.0,-100.00,NNE,27,5.0,7.0,27,-99.99,,,0.00,186.000000,,2013-04-19 14:32:00,
2013-04-19 09:01:00,28.0,-2.0,-100.00,NNE,27,5.0,7.0,27,-99.99,,,0.00,186.000000,,2013-04-19 15:01:00,
2013-04-19 09:43:00,33.0,0.0,-100.00,SSE,164,5.0,11.0,24,0.00,,,0.00,417.000000,,2013-04-19 15:43:00,
2013-04-19 09:52:00,33.0,0.0,-100.00,SSE,164,5.0,11.0,24,0.00,,,0.00,417.000000,,2013-04-19 15:52:00,
2013-04-19 10:03:00,33.0,0.0,-100.00,SSE,164,5.0,11.0,24,0.00,,,0.00,417.000000,,2013-04-19 16:03:00,
2013-04-19 10:42:00,36.0,0.0,-100.00,SSW,204,6.0,10.0,21,0.00,,,0.00,643.000000,,2013-04-19 16:42:00,
2013-04-19 10:52:00,36.0,0.0,-100.00,SSW,204,6.0,10.0,21,0.00,,,0.00,643.000000,,2013-04-19 16:52:00,
2013-04-19 11:02:00,36.0,0.0,-100.00,SSW,204,6.0,10.0,21,0.00,,,0.00,643.000000,,2013-04-19 17:02:00,
2013-04-19 11:33:00,39.0,1.0,-100.00,SW,214,6.0,12.0,20,0.00,,,0.00,831.000000,,2013-04-19 17:33:00,
2013-04-19 11:43:00,39.0,1.0,-100.00,SW,214,6.0,12.0,20,0.00,,,0.00,831.000000,,2013-04-19 17:43:00,
2013-04-19 11:52:00,39.0,1.0,-100.00,SW,214,6.0,12.0,20,0.00,,,0.00,831.000000,,2013-04-19 17:52:00,
2013-04-19 12:01:00,39.0,1.0,-100.00,SW,214,6.0,12.0,20,0.00,,,0.00,831.000000,,2013-04-19 18:01:00,
2013-04-19 12:43:00,44.0,3.0,-100.00,WSW,246,5.0,11.0,18,0.00,,,0.00,964.000000,,2013-04-19 18:43:00,
2013-04-19 12:52:00,44.0,3.0,-100.00,WSW,246,5.0,11.0,18,0.00,,,0.00,964.000000,,2013-04-19 18:52:00,
2013-04-19 13:01:00,44.0,3.0,-100.00,WSW,246,5.0,11.0,18,0.00,,,0.00,964.000000,,2013-04-19 19:01:00,
2013-04-19 13:32:00,46.0,6.0,-100.00,SW,236,8.0,16.0,19,0.00,,,-99.99,1043.000000,,2013-04-19 19:32:00,
2013-04-19 13:42:00,46.0,6.0,-100.00,SW,236,8.0,16.0,19,0.00,,,-99.99,1043.000000,,2013-04-19 19:42:00,
2013-04-19 13:52:00,46.0,6.0,-100.00,SW,236,8.0,16.0,19,0.00,,,-99.99,1043.000000,,2013-04-19 19:52:00,
2013-04-19 14:01:00,46.0,6.0,-100.00,SW,236,8.0,16.0,19,0.00,,,-99.99,1043.000000,,2013-04-19 20:01:00,
2013-04-19 14:32:00,49.0,9.0,-100.00,SW,235,10.0,21.0,19,0.00,,,0.00,1041.000000,,2013-04-19 20:32:00,
2013-04-19 14:42:00,49.0,9.0,-100.00,SW,235,10.0,21.0,19,0.00,,,0.00,1041.000000,,2013-04-19 20:42:00,
2013-04-19 14:52:00,49.0,9.0,-100.00,SW,235,10.0,21.0,19,0.00,,,0.00,1041.000000,,2013-04-19 20:52:00,
2013-04-19 15:01:00,49.0,9.0,-100.00,SW,235,10.0,21.0,19,0.00,,,0.00,1041.000000,,2013-04-19 21:01:00,
2013-04-19 16:33:00,52.0,9.0,-100.00,WSW,239,14.0,26.0,17,-99.99,,,0.00,765.000000,,2013-04-19 22:33:00,
2013-04-19 16:42:00,52.0,9.0,-100.00,WSW,239,14.0,26.0,17,-99.99,,,0.00,765.000000,,2013-04-19 22:42:00,
2013-04-19 16:52:00,52.0,9.0,-100.00,WSW,239,14.0,26.0,17,-99.99,,,0.00,765.000000,,2013-04-19 22:52:00,
2013-04-19 17:02:00,52.0,9.0,-100.00,WSW,239,14.0,26.0,17,-99.99,,,0.00,765.000000,,2013-04-19 23:02:00,
2013-04-19 17:42:00,53.0,11.0,-100.00,WSW,250,13.0,26.0,18,0.00,,,0.00,509.000000,,2013-04-19 23:42:00,
2013-04-19 17:52:00,53.0,11.0,-100.00,WSW,250,13.0,26.0,18,0.00,,,0.00,509.000000,,2013-04-19 23:52:00,
2013-04-19 18:01:00,53.0,11.0,-100.00,WSW,250,13.0,26.0,18,0.00,,,0.00,509.000000,,2013-04-20 00:01:00,
2013-04-19 19:32:00,47.0,8.0,-100.00,WSW,256,15.0,22.0,20,-99.99,,,0.00,225.000000,,2013-04-20 01:32:00,
2013-04-19 19:42:00,47.0,8.0,-100.00,WSW,256,15.0,22.0,20,-99.99,,,0.00,225.000000,,2013-04-20 01:42:00,
2013-04-19 19:52:00,47.0,8.0,-100.00,WSW,256,15.0,22.0,20,-99.99,,,0.00,225.000000,,2013-04-20 01:52:00,
2013-04-19 20:01:00,47.0,8.0,-100.00,WSW,256,15.0,22.0,20,-99.99,,,0.00,225.000000,,2013-04-20 02:01:00,
2013-04-19 20:32:00,42.0,8.0,-100.00,WSW,251,10.0,23.0,24,0.00,,,0.00,36.000000,,2013-04-20 02:32:00,
2013-04-19 20:42:00,42.0,8.0,-100.00,WSW,251,10.0,23.0,24,0.00,,,0.00,36.000000,,2013-04-20 02:42:00,
2013-04-19 20:52:00,42.0,8.0,-100.00,WSW,251,10.0,23.0,24,0.00,,,0.00,36.000000,,2013-04-20 02:52:00,
2013-04-19 21:01:00,42.0,8.0,-100.00,WSW,251,10.0,23.0,24,0.00,,,0.00,36.000000,,2013-04-20 03:01:00,
2013-04-19 21:33:00,40.0,9.0,-100.00,WNW,290,9.0,14.0,27,0.00,,,0.00,0.000000,,2013-04-20 03:33:00,
2013-04-19 21:43:00,40.0,9.0,-100.00,WNW,290,9.0,14.0,27,0.00,,,0.00,0.000000,,2013-04-20 03:43:00,
2013-04-19 21:53:00,40.0,9.0,-100.00,WNW,290,9.0,14.0,27,0.00,,,0.00,0.000000,,2013-04-20 03:53:00,
2013-04-19 22:02:00,40.0,9.0,-100.00,WNW,290,9.0,14.0,27,0.00,,,0.00,0.000000,,2013-04-20 04:02:00,
2013-04-19 22:43:00,41.0,10.0,-100.00,WNW,299,9.0,15.0,27,0.00,,,0.00,0.000000,,2013-04-20 04:43:00,
2013-04-19 22:52:00,41.0,10.0,-100.00,WNW,299,9.0,15.0,27,0.00,,,0.00,0.000000,,2013-04-20 04:52:00,
2013-04-19 23:02:00,41.0,10.0,-100.00,WNW,299,9.0,15.0,27,0.00,,,0.00,0.000000,,2013-04-20 05:02:00,
2013-04-19 23:32:00,40.0,9.0,-100.00,NW,318,7.0,17.0,27,0.00,,,0.00,0.000000,,2013-04-20 05:32:00,
2013-04-19 23:43:00,40.0,9.0,-100.00,NW,318,7.0,17.0,27,0.00,,,0.00,0.000000,,2013-04-20 05:43:00,
2013-04-19 23:52:00,40.0,9.0,-100.00,NW,318,7.0,17.0,27,0.00,,,0.00,0.000000,,2013-04-20 05:52:00,